Wind_Speed
88 89 89 88 88 88 88 87 86 84 82 79 77 74 72 70 68 67 65 63 62 60 59 59 58 57 56 55 54 54 53 52 52 51 50 50 49 48 48 47 46 46 46 45 45 44 44 43 43 42 42 41 40 39 38 36 35 35 34 34 33 32 31 29 28 26 24 22 19 18 17 18 19 22 24 28 31 34 37 40 43 45 47 49 51 52
87 87 87 87 87 87 87 86 84 81 79 77 74 72 70 68 66 65 63 61 60 59 58 57 56 56 55 54 53 53 52 51 51 50 50 49 48 48 47 47 46 46 45 45 44 44 43 42 42 41 41 40 40 39 37 36 35 34 33 33 32 31 31 29 28 27 25 24 22 20 20 20 21 23 25 28 31 33 36 39 42 44 47 49 51 53
86 86 86 86 86 86 86 84 82 79 76 74 72 70 68 66 65 63 61 60 59 57 56 56 55 54 53 53 52 51 51 50 50 49 49 48 48 47 47 46 46 45 44 44 43 43 42 41 40 40 39 39 38 38 37 36 34 33 32 32 31 31 30 30 29 28 27 26 25 23 23 22 23 24 26 28 31 33 35 38 41 43 46 48 50 52
84 85 85 86 86 85 84 82 79 77 74 72 70 68 67 65 63 61 60 58 57 56 55 54 54 53 52 51 51 50 49 49 48 48 48 47 47 46 46 45 45 44 43 43 42 41 40 40 39 38 38 37 37 37 37 35 34 33 32 31 31 31 30 30 29 29 28 27 27 26 26 25 25 26 27 29 31 33 35 37 39 42 44 47 49 51
84 84 85 85 85 84 82 79 77 74 73 71 69 67 65 63 61 60 58 57 56 55 54 53 52 52 51 50 50 49 48 48 47 47 46 46 46 45 45 44 44 43 42 42 41 40 39 38 38 37 36 36 36 36 36 35 34 33 32 31 31 30 30 30 30 30 29 29 29 29 28 28 28 28 29 30 31 33 35 37 39 41 43 45 47 50
84 84 85 85 84 82 79 77 74 73 71 69 67 65 63 62 60 58 57 56 55 54 53 52 51 51 50 49 49 48 47 47 46 46 45 45 45 44 44 43 43 42 41 41 40 39 38 37 37 36 35 35 35 35 35 35 34 34 32 31 31 30 30 30 30 30 30 31 31 31 31 31 31 31 31 32 32 33 35 36 38 40 43 45 47 49
84 84 84 83 82 79 77 74 73 71 69 68 66 64 62 61 59 57 56 55 54 53 52 51 51 50 49 48 48 47 47 46 46 45 45 44 44 44 43 43 42 41 41 40 39 38 38 37 36 36 35 35 34 34 34 34 34 34 33 32 31 30 30 30 30 31 31 31 32 32 32 33 33 33 34 34 34 35 36 37 38 40 41 43 45 47
84 84 83 82 79 77 75 73 71 69 68 66 64 63 61 60 58 57 55 54 53 52 51 51 50 49 48 48 47 47 46 46 45 45 44 44 44 43 43 42 42 41 40 40 39 38 37 37 36 36 35 35 34 34 34 34 34 34 33 33 32 31 31 30 30 31 31 32 33 33 34 34 35 35 36 36 37 37 38 38 39 40 41 42 44 46
83 83 82 79 76 74 72 71 70 68 66 65 63 61 60 59 57 56 55 54 53 52 51 50 50 49 48 47 47 46 46 45 45 45 44 44 43 43 42 42 41 41 40 40 39 38 38 37 37 36 35 35 35 34 34 34 34 34 33 33 33 33 32 31 31 31 31 32 33 34 34 35 36 37 38 38 39 40 40 41 41 42 42 43 44 45
82 81 79 77 74 72 70 69 68 67 65 63 62 60 59 58 57 56 55 53 52 51 50 50 49 49 48 47 47 46 46 45 45 44 44 44 43 43 42 42 41 41 40 40 39 39 38 38 37 36 36 36 35 35 35 34 34 34 34 34 33 33 33 33 32 32 32 32 33 34 35 36 37 37 38 39 40 41 42 43 44 44 45 45 46 47
81 79 76 74 72 70 69 68 67 65 64 62 61 59 58 57 56 55 54 53 52 51 50 50 49 48 48 47 47 46 46 45 45 44 44 43 43 43 42 42 42 41 41 40 40 39 39 38 37 37 36 36 36 36 35 35 35 35 34 34 34 34 34 34 34 34 34 34 34 34 35 36 36 38 39 40 41 42 43 44 45 46 47 47 48 49
79 76 74 72 70 69 68 67 66 64 62 61 60 59 57 56 55 54 54 53 52 51 50 50 49 48 48 47 47 46 46 45 45 44 44 43 43 43 42 42 42 41 41 41 40 40 39 39 38 38 37 37 37 36 36 36 36 36 35 35 35 35 35 35 35 35 35 35 35 36 36 36 37 38 39 40 41 42 44 45 46 47 48 49 50 51
76 74 72 70 69 68 67 66 64 63 61 60 58 57 57 56 55 54 53 53 52 51 50 50 49 48 48 47 47 46 46 46 45 45 44 44 43 43 43 42 42 42 42 41 41 40 40 39 39 39 38 38 37 37 37 37 37 37 37 37 37 36 36 36 36 36 36 37 37 37 38 38 38 39 39 40 41 42 43 45 46 47 48 49 51 52
74 71 70 69 68 67 65 64 63 62 60 59 58 57 56 55 55 54 53 53 52 51 51 50 49 49 48 47 47 46 46 46 46 45 44 44 44 43 43 43 43 43 42 42 42 41 41 41 40 40 39 39 39 38 38 38 38 38 38 38 38 38 38 38 37 37 38 38 38 39 39 40 40 40 41 41 42 42 43 44 46 47 48 49 51 52
71 70 69 68 67 66 64 63 62 61 60 58 57 56 56 55 54 54 53 52 52 51 51 50 50 49 49 48 47 47 46 46 46 46 45 45 44 44 44 44 44 43 43 43 43 43 42 42 42 41 41 40 40 40 39 40 40 40 40 40 40 40 40 40 40 39 39 39 40 40 40 41 41 42 42 43 43 44 45 45 46 47 48 49 50 52
70 69 68 67 66 65 64 63 61 60 59 58 57 56 55 55 54 54 53 53 52 52 51 51 50 50 49 48 47 47 47 47 47 46 46 46 45 45 45 45 45 45 44 44 44 44 44 43 43 43 42 42 41 41 41 41 41 41 41 41 41 42 42 42 42 42 42 42 42 42 42 42 43 43 44 44 45 46 46 47 47 48 49 50 51 52
69 68 67 67 66 64 63 62 61 60 58 57 56 55 55 54 54 54 53 53 52 52 51 51 50 50 50 50 49 48 47 48 48 47 47 47 46 46 46 46 46 46 46 46 45 45 45 45 44 44 44 43 43 43 43 43 43 43 43 43 43 43 43 44 44 44 44 44 44 44 44 44 44 45 45 46 46 47 48 48 49 50 50 51 52 53
68 67 67 66 65 64 63 62 61 59 58 57 56 56 55 54 54 54 53 53 53 52 52 51 51 51 51 50 50 49 48 48 49 49 48 48 47 47 47 47 47 48 47 47 47 47 47 46 46 46 45 45 45 45 45 45 45 45 45 45 45 45 45 45 46 46 46 46 46 46 46 46 46 46 47 47 48 48 49 49 50 51 52 53 53 54
67 67 66 66 65 64 63 62 61 59 58 57 56 56 55 55 54 54 54 54 53 53 53 52 52 51 51 51 51 50 50 50 50 50 49 49 49 48 48 48 49 49 49 49 49 49 48 48 48 47 47 47 47 47 47 47 47 47 47 47 47 47 47 47 47 48 48 48 48 48 48 48 48 48 48 49 49 50 50 51 51 52 53 54 55 56
67 66 65 65 65 64 64 62 61 60 59 58 57 56 56 55 55 55 54 54 54 53 53 53 53 52 52 52 52 51 51 51 51 51 51 50 50 50 49 49 50 50 50 50 50 50 50 50 50 49 49 49 49 49 49 49 49 49 49 49 49 50 50 50 50 50 50 50 50 50 50 50 50 50 50 50 51 51 52 52 53 53 54 55 56 57
66 66 65 64 64 64 64 63 62 61 59 58 58 57 56 56 56 55 55 55 54 54 54 54 53 53 53 53 53 52 52 52 52 52 52 52 51 51 51 51 51 51 52 52 52 52 52 52 51 51 51 51 51 51 51 51 51 52 52 52 52 52 52 52 52 52 52 52 52 52 52 52 52 52 52 52 52 53 53 54 54 55 55 56 57 58
66 65 65 64 63 63 63 63 63 62 61 59 58 58 57 57 56 56 56 55 55 55 55 54 54 54 54 54 54 54 53 53 53 54 54 54 53 52 52 52 52 52 53 53 53 53 53 53 53 53 52 52 52 53 53 53 53 53 54 54 54 54 55 55 55 54 54 54 54 54 54 54 54 54 54 54 54 54 54 55 55 56 57 57 58 59
66 65 65 64 63 63 63 63 63 63 62 61 59 59 58 58 57 57 57 56 56 56 55 55 55 55 55 54 54 54 54 54 54 55 55 55 55 54 53 53 53 54 54 54 54 54 54 54 54 54 54 54 54 54 54 55 55 55 56 56 56 57 57 57 57 57 57 57 57 56 56 56 56 55 55 55 55 56 56 56 57 57 58 59 60 60
67 66 65 64 63 63 63 63 63 63 63 62 61 60 59 58 58 58 57 57 57 56 56 56 56 56 55 55 55 55 55 55 55 56 56 56 56 56 55 55 55 55 55 55 55 55 55 55 55 55 55 55 56 56 56 56 57 57 58 58 58 59 59 59 59 59 59 59 59 58 58 58 58 58 57 57 57 57 58 58 58 59 60 60 61 62
67 66 65 65 64 64 63 63 63 63 63 63 62 61 60 59 59 59 58 58 58 57 57 57 56 56 56 56 56 56 56 56 56 56 57 57 58 57 57 57 57 57 57 57 56 57 57 57 57 57 57 57 57 57 58 58 59 59 59 60 60 61 61 61 61 61 61 61 61 60 60 60 60 59 59 59 59 59 59 60 60 61 61 62 63 64
67 66 66 65 65 65 64 64 64 64 64 64 63 62 61 60 60 60 59 59 59 58 58 58 57 57 57 57 57 57 57 57 57 57 57 58 59 59 58 58 58 58 59 58 58 58 58 58 58 58 58 59 59 59 59 60 60 61 61 61 62 62 63 63 63 63 63 63 63 62 62 62 61 61 61 61 61 61 62 62 62 63 63 64 65 66
67 67 66 66 66 66 65 65 65 65 65 64 64 63 62 61 61 60 60 60 60 59 59 59 59 58 58 58 58 58 58 57 57 58 58 59 59 60 60 59 59 60 60 60 60 59 59 60 60 60 60 60 60 61 61 61 62 62 63 63 64 64 64 65 65 65 65 65 64 64 64 63 63 63 63 63 63 63 64 64 64 65 66 66 67 68
68 67 67 67 67 67 67 66 66 66 66 65 65 64 63 62 61 61 61 60 60 60 60 60 60 59 59 59 59 58 58 58 58 58 58 59 60 61 61 60 61 61 61 61 61 61 60 61 61 61 61 62 62 62 63 63 64 64 64 65 65 66 66 66 66 66 66 66 66 66 65 65 65 65 65 65 65 65 65 66 66 67 68 68 69 70
68 68 68 68 68 68 68 68 67 67 67 67 66 65 64 62 62 61 61 61 61 61 61 61 60 60 60 60 60 59 59 59 59 59 59 60 60 61 61 61 61 62 62 62 62 62 62 61 61 62 62 63 63 64 65 65 65 66 66 66 67 67 67 68 68 68 67 67 67 67 67 66 66 66 66 66 67 67 67 68 68 69 69 70 70 71
69 69 69 69 69 69 69 69 68 68 68 67 67 65 64 63 62 61 61 61 61 61 61 61 61 61 61 61 61 61 60 60 59 59 59 60 61 62 62 62 62 62 62 63 63 63 63 63 62 63 63 64 65 65 66 66 67 68 68 68 69 69 69 69 69 69 69 69 68 68 68 68 68 68 68 68 68 69 69 69 69 70 70 70 71 71
70 70 70 70 71 71 71 70 70 69 69 68 67 66 64 63 62 61 61 61 61 61 62 62 62 62 61 62 62 62 62 61 60 60 60 61 62 62 63 63 63 63 63 63 64 65 65 65 64 64 64 65 65 66 67 67 68 69 70 70 71 71 71 71 70 70 70 70 70 69 69 69 69 69 70 70 70 70 70 70 70 70 70 70 70 70
71 71 72 72 72 72 72 72 71 71 70 69 68 66 64 63 61 61 61 60 61 61 61 62 62 62 62 62 62 62 62 62 62 61 61 62 63 63 63 64 64 64 64 64 64 65 66 66 66 66 66 66 67 67 68 68 69 70 71 71 72 72 72 72 72 72 71 71 71 71 71 71 71 71 71 71 71 71 71 71 71 70 70 70 69 69
72 72 73 73 73 74 73 73 73 72 71 70 68 66 64 62 61 60 60 60 60 61 61 62 62 62 62 62 63 63 63 63 63 62 62 63 64 64 64 65 65 65 65 65 65 65 66 67 68 68 68 68 68 69 69 70 70 71 71 72 73 73 73 73 73 73 73 72 72 72 72 72 72 72 72 72 72 72 71 71 70 70 69 68 68 67
73 73 74 74 74 75 74 74 74 73 72 70 68 66 64 62 61 60 60 60 60 60 61 61 62 62 63 63 63 63 63 63 63 63 64 64 65 65 66 66 66 66 66 66 66 67 67 68 69 69 70 70 71 71 71 71 72 72 72 73 73 74 74 74 74 74 74 74 73 73 73 73 72 72 72 72 72 71 70 70 69 68 67 66 66 65
73 74 74 75 75 76 76 75 75 74 72 70 68 65 63 62 61 60 60 60 60 60 61 61 61 62 63 63 63 64 64 64 64 64 65 65 66 66 67 67 67 67 67 67 68 68 69 69 70 71 71 72 73 73 73 73 73 73 73 73 73 74 74 74 74 75 75 75 74 74 74 73 73 72 72 71 70 70 69 68 67 66 65 64 63 63
74 75 75 76 76 76 76 76 75 74 72 70 67 65 63 62 61 60 60 60 60 60 61 61 61 62 62 63 63 64 65 65 65 65 66 66 67 67 68 68 67 67 68 69 69 69 70 71 71 72 73 73 74 74 74 74 74 75 75 74 74 74 74 74 74 75 75 75 75 75 74 74 73 72 71 70 68 67 66 65 64 64 63 62 62 61
74 75 76 76 76 77 77 76 75 73 71 69 66 64 63 62 61 60 60 60 60 61 61 61 62 62 62 63 63 64 65 65 66 66 67 67 67 68 68 68 68 68 69 69 70 70 71 72 73 73 74 74 75 76 76 76 76 75 75 75 75 75 75 74 74 74 75 75 75 75 74 73 72 71 69 68 66 65 64 63 62 62 61 61 60 60
75 75 76 76 77 77 76 75 74 72 70 67 65 64 63 62 61 61 61 61 61 61 61 62 62 62 63 63 64 64 65 66 66 67 67 68 68 68 69 69 69 69 70 70 71 71 72 73 74 75 75 75 76 76 76 76 76 76 76 76 76 76 75 75 74 74 74 74 74 74 73 72 71 69 68 66 64 63 62 61 60 60 59 59 59 59
75 76 76 76 76 76 76 74 72 70 68 66 65 63 62 62 61 61 61 61 61 62 62 62 63 63 64 64 65 65 66 66 67 67 68 68 68 69 69 70 70 71 71 71 72 72 73 74 74 75 76 76 77 77 77 77 77 77 77 77 77 76 76 75 74 74 74 73 73 72 71 70 68 67 66 64 63 62 61 60 59 58 58 58 58 58
76 76 76 76 76 75 74 72 70 68 66 65 64 63 62 62 62 62 62 61 62 62 62 63 63 64 64 65 65 66 66 67 67 68 68 69 69 69 70 70 71 71 72 72 73 73 74 74 75 76 76 76 77 77 77 77 77 77 77 78 78 77 76 75 74 73 72 71 70 69 68 67 65 64 64 63 62 61 60 59 59 58 58 57 57 57
76 76 76 76 75 74 72 70 68 66 65 64 63 63 62 62 62 62 62 62 62 63 63 63 64 65 65 66 66 67 67 68 68 68 69 69 69 70 70 71 71 72 73 73 74 74 74 75 75 76 76 76 77 77 77 77 77 77 77 78 78 77 76 75 73 72 71 69 67 66 65 63 63 62 61 61 61 60 60 59 59 58 57 57 57 56
76 76 76 75 73 71 69 68 66 65 64 63 63 62 62 62 62 62 62 63 63 63 64 64 65 66 66 67 67 68 68 68 69 69 69 70 70 70 71 71 72 72 73 74 74 74 75 75 75 76 76 77 77 77 78 78 77 77 77 77 77 76 75 73 71 70 68 66 65 63 61 61 60 60 60 60 60 60 59 59 59 58 58 57 56 56
76 75 75 73 71 69 67 66 65 64 63 63 63 62 62 62 62 63 63 64 64 65 65 65 66 67 68 68 68 69 69 69 69 69 70 70 70 71 71 71 72 72 73 74 74 75 75 75 76 76 76 77 77 78 78 78 78 77 76 76 76 75 74 72 69 67 65 63 62 60 59 58 58 58 58 59 59 59 59 59 58 58 57 57 56 56
75 74 73 71 69 67 66 65 64 63 63 63 63 63 63 63 63 63 64 64 65 65 66 67 67 68 68 69 69 69 69 70 70 70 70 70 71 71 71 72 72 72 73 73 74 75 75 76 76 76 77 77 77 78 78 78 77 77 76 75 74 73 72 70 67 65 63 61 59 58 58 57 57 57 57 58 58 58 58 58 58 58 57 57 56 55
74 73 71 69 67 66 65 64 64 63 63 63 63 63 63 64 64 64 65 65 66 66 67 67 68 69 69 69 69 70 70 70 70 70 70 70 71 71 71 72 72 73 73 74 74 75 75 76 77 77 77 77 77 77 77 77 77 76 75 73 71 70 68 66 64 62 61 59 58 57 57 56 57 57 57 57 57 57 57 57 57 57 56 56 56 55
72 71 69 67 65 65 64 64 64 64 64 64 64 64 64 64 65 65 66 66 67 67 68 68 68 69 69 69 69 69 69 70 70 70 70 70 71 71 71 72 72 73 74 74 75 75 76 77 77 78 78 78 77 77 76 76 76 75 73 71 69 67 65 63 61 59 58 58 57 57 57 56 56 56 56 56 56 56 56 56 56 56 56 55 55 55
70 68 67 66 65 64 64 64 64 64 65 65 65 65 65 65 66 66 66 67 67 68 68 68 68 68 69 69 69 69 69 69 69 70 70 71 71 71 72 72 73 74 74 75 76 76 77 77 77 78 78 78 78 77 76 75 74 73 71 69 67 64 62 60 59 58 57 57 57 57 57 56 56 56 56 56 56 56 55 55 55 55 54 54 54 54
68 67 66 65 64 64 64 64 64 65 65 65 65 65 66 66 66 66 67 67 67 68 68 68 68 68 68 68 68 68 69 69 69 70 70 71 72 72 73 74 74 75 75 76 76 77 77 78 77 77 77 77 77 77 75 74 72 70 68 66 64 62 60 58 57 57 56 57 56 56 56 56 56 56 56 56 55 55 55 54 54 54 53 53 53 53
66 65 65 64 64 65 65 65 65 65 65 65 65 66 66 66 66 66 67 67 67 67 67 67 68 68 68 68 68 68 69 69 70 70 71 72 72 73 74 75 75 76 76 77 77 78 78 78 77 77 76 76 76 76 74 72 70 67 65 63 61 59 58 57 56 56 56 56 56 56 56 56 56 55 55 55 55 55 55 54 53 53 52 52 52 52
65 65 64 64 65 65 65 65 65 65 65 65 66 66 66 66 66 66 66 66 67 67 67 67 67 68 68 68 69 69 70 70 71 71 72 73 73 74 75 75 76 77 77 78 78 78 78 78 78 76 75 74 74 74 72 70 68 65 62 60 59 57 57 56 56 56 56 56 56 56 55 55 55 55 55 55 55 55 54 54 53 52 51 51 50 50
64 64 64 65 65 65 65 65 65 65 66 66 66 66 66 66 66 66 66 66 67 67 67 67 68 68 69 69 70 70 71 71 72 73 73 74 74 75 76 76 77 77 78 78 78 79 79 79 79 77 75 72 71 70 69 68 65 63 61 59 57 56 56 56 56 55 56 56 55 55 55 55 54 54 54 54 55 55 54 54 53 52 50 50 49 49
Wind_Direction
301 302 303 304 305 306 307 307 308 309 309 309 309 309 309 309 309 309 309 309 309 309 308 308 308 308 308 308 308 307 307 307 307 307 307 307 307 307 307 307 307 307 307 307 307 308 308 308 308 308 308 308 308 308 308 308 308 307 307 306 306 306 305 305 304 303 301 297 291 280 267 256 247 240 236 234 232 231 229 228 227 227 227 227 228 229
301 302 303 304 305 306 307 308 308 308 309 309 309 309 309 309 309 309 309 309 309 308 308 308 308 308 308 308 308 308 307 307 307 307 307 307 307 307 307 307 307 307 307 307 307 307 308 308 308 308 308 307 307 307 307 307 307 306 305 304 303 302 302 301 300 297 295 293 288 282 271 260 251 244 239 236 234 233 233 232 231 230 230 229 230 230
301 302 303 304 305 306 307 308 308 308 308 309 309 309 309 309 309 309 309 308 308 308 308 308 308 308 308 308 308 308 308 308 308 307 307 307 307 307 307 307 307 307 307 308 308 308 308 308 308 308 308 307 307 307 307 307 306 305 304 302 301 299 298 297 295 293 291 288 285 281 275 267 258 251 245 241 238 237 236 235 234 234 234 233 233 232
301 302 303 304 306 307 307 308 308 308 308 309 309 309 309 309 309 308 308 308 308 308 308 308 308 308 308 308 308 308 308 308 308 308 308 307 307 307 307 307 307 308 308 308 308 308 308 308 308 309 308 308 308 307 307 307 306 305 303 301 299 297 295 294 292 290 288 285 282 279 275 270 265 259 253 248 245 242 240 239 238 238 237 237 236 236
301 302 303 305 306 307 307 308 308 308 309 309 309 309 309 309 308 308 308 308 308 308 308 308 308 308 308 308 308 308 308 308 308 308 308 308 308 308 308 308 308 308 308 308 308 309 309 309 309 309 309 309 308 308 307 307 306 305 304 301 299 296 294 292 289 287 285 283 280 277 274 271 268 264 260 256 252 249 246 244 242 241 240 240 239 239
301 302 304 305 306 307 307 308 308 308 309 309 309 309 308 308 308 308 308 308 308 308 308 308 308 308 308 308 309 309 309 308 308 308 308 308 308 308 308 308 308 308 308 308 308 309 309 309 309 309 309 309 308 308 307 307 306 305 304 302 299 297 294 291 288 286 283 281 279 276 274 271 269 266 264 261 258 255 252 249 247 246 244 243 242 242
301 303 304 305 306 307 307 308 308 309 309 309 309 308 308 308 307 307 307 307 308 308 308 308 308 308 308 308 309 309 309 309 309 308 309 308 308 308 308 308 308 308 308 308 308 308 309 309 309 309 309 308 308 307 307 306 306 305 304 303 301 298 294 291 288 286 283 280 278 276 274 272 269 267 265 263 261 259 257 255 252 250 249 247 246 245
302 303 305 306 307 307 308 308 308 309 309 308 308 308 308 307 307 307 307 307 307 307 308 308 308 308 308 308 309 309 309 309 308 308 308 308 308 308 307 307 307 307 307 308 308 308 309 309 309 309 309 308 307 307 306 306 305 304 304 302 301 299 296 293 290 287 284 281 278 276 274 272 270 268 266 264 263 261 260 258 256 254 252 251 250 249
302 304 305 306 307 307 308 308 308 308 308 308 307 307 307 307 306 306 306 306 307 307 307 307 308 308 308 308 308 308 308 308 308 308 308 307 307 307 307 307 307 307 307 308 308 308 309 309 309 309 309 308 308 307 306 305 305 304 303 302 301 299 298 295 292 289 286 283 280 277 275 273 271 269 267 265 264 262 261 260 259 257 256 254 253 252
303 304 305 306 307 307 308 308 308 308 308 307 307 306 306 306 306 306 306 306 306 306 307 307 307 307 308 308 308 308 308 307 307 307 307 307 307 307 307 307 307 307 308 308 308 309 309 309 309 309 309 308 308 307 307 306 305 304 303 302 300 299 298 296 294 291 288 285 282 279 277 275 272 270 268 267 265 263 262 261 260 259 258 257 256 255
303 305 305 306 307 307 307 308 308 308 307 307 306 305 305 305 305 305 305 305 305 306 306 306 306 307 307 307 307 307 307 306 306 306 306 306 306 306 307 307 307 308 308 308 309 309 309 309 309 309 309 309 308 308 307 306 305 304 303 302 300 299 298 297 295 293 291 288 285 282 280 277 274 272 270 268 267 265 264 262 261 260 260 259 258 257
304 304 305 306 306 307 307 307 307 307 306 306 305 305 304 304 304 304 304 304 305 305 305 305 305 306 306 306 306 306 306 306 306 306 306 306 306 306 307 307 307 308 308 308 308 308 309 309 309 309 309 309 308 308 307 306 306 305 304 303 301 300 299 297 295 294 292 290 288 285 283 280 277 275 272 271 268 267 265 264 263 262 261 260 259 258
303 304 305 306 306 307 307 307 307 307 306 305 305 304 304 303 303 303 303 303 304 304 304 305 305 305 305 305 305 305 305 305 305 305 306 306 306 306 306 307 307 307 307 307 307 308 308 308 308 308 308 308 307 307 307 306 305 305 304 303 302 301 299 298 296 294 292 291 289 287 285 283 280 278 276 273 271 269 267 266 265 263 262 261 260 260
303 304 305 305 306 306 307 307 307 306 306 305 304 303 303 302 302 302 302 302 303 303 303 303 304 304 304 304 304 304 304 305 304 305 305 305 305 306 306 306 306 306 306 306 306 306 306 306 306 307 307 307 306 306 306 305 305 304 304 303 302 301 300 299 297 295 293 291 289 288 286 284 282 280 278 276 274 272 270 268 267 265 264 263 262 261
303 304 305 305 306 306 307 307 307 306 305 304 303 302 302 301 301 301 301 301 302 302 302 303 303 303 303 303 303 304 304 304 304 304 304 304 304 305 305 304 304 304 304 305 305 305 305 305 305 305 305 305 305 305 304 304 304 303 303 302 302 301 300 299 297 296 294 292 290 288 286 285 283 281 280 278 276 274 273 271 269 268 266 265 264 263
303 304 304 305 306 306 306 307 306 306 304 303 302 302 301 301 300 300 301 301 301 301 302 302 302 302 302 302 303 303 303 303 303 303 303 303 303 303 303 303 303 303 303 303 303 303 303 304 304 304 304 304 304 304 303 303 303 302 302 301 301 300 300 299 298 296 295 293 291 289 287 285 283 282 280 278 277 275 274 273 271 270 268 267 266 264
302 303 304 305 305 306 306 307 306 305 304 303 302 301 300 300 300 300 300 300 300 300 301 301 301 302 302 302 302 302 302 302 302 302 302 302 302 302 302 302 302 302 302 302 302 302 302 302 302 302 303 303 303 303 302 302 302 301 301 301 300 300 299 298 297 296 295 293 292 290 288 286 284 282 281 279 277 276 275 273 272 271 270 269 267 266
302 303 304 305 305 306 307 307 307 306 304 303 301 300 300 299 299 299 299 299 299 300 300 300 300 300 301 301 301 301 301 301 301 301 300 301 301 301 301 301 301 301 301 301 301 301 301 301 301 302 302 302 302 302 301 301 301 301 300 300 300 299 299 298 297 296 295 294 292 290 289 287 285 284 282 280 278 277 275 274 273 271 270 269 268 267
302 303 304 305 306 306 307 307 307 306 305 303 301 300 300 299 299 299 299 299 299 299 299 299 299 299 300 300 300 300 300 300 300 300 300 300 300 300 300 300 300 300 300 300 300 301 301 301 301 301 301 301 301 301 301 301 300 300 300 300 299 299 299 298 297 296 295 294 293 291 290 288 286 285 283 281 280 278 276 275 274 272 271 270 269 268
302 303 304 305 306 306 307 307 307 307 305 303 302 300 299 299 299 298 298 298 298 298 298 298 298 298 299 299 299 299 299 299 299 299 299 299 299 299 299 299 299 299 299 300 300 300 300 300 300 300 301 301 301 301 301 300 300 300 300 300 300 299 299 298 298 297 296 295 293 292 291 289 287 286 284 282 281 279 278 276 275 274 272 271 270 269
302 303 304 305 306 307 307 307 308 307 306 304 302 300 299 298 298 298 298 298 298 297 298 298 298 298 298 298 298 298 299 299 299 298 298 299 298 299 299 299 299 299 299 299 299 299 300 300 300 300 300 300 300 300 300 300 300 300 300 300 300 299 299 299 298 297 296 295 294 293 291 290 288 287 285 283 282 280 279 277 276 275 273 272 271 270
301 302 303 304 305 306 307 308 308 308 307 305 303 301 299 298 298 298 297 297 297 297 297 297 297 297 297 297 297 297 298 298 298 298 298 298 298 298 299 299 298 298 298 299 299 299 299 299 299 299 300 300 300 300 300 300 300 300 300 300 300 299 299 299 298 298 297 296 295 294 292 291 289 288 286 285 283 282 280 279 277 276 275 273 272 271
301 302 303 304 305 306 307 307 308 308 307 306 304 301 299 298 297 297 297 297 296 296 296 296 296 296 296 296 296 297 297 297 297 297 298 298 298 298 298 298 298 298 298 298 298 298 298 298 298 299 299 299 299 299 299 299 299 299 299 299 299 299 299 299 298 298 297 296 295 294 293 292 290 289 287 286 284 283 281 280 279 277 276 275 273 272
301 302 302 303 304 305 306 307 307 308 307 306 304 302 300 298 296 296 296 296 296 296 296 296 296 296 296 296 296 296 296 296 297 297 297 297 298 298 298 298 298 298 298 298 298 298 298 298 298 298 298 299 299 299 299 299 299 299 299 299 299 299 299 299 299 298 297 297 296 295 294 293 291 290 289 287 286 284 283 281 280 279 277 276 275 273
301 301 302 303 303 304 305 306 306 307 307 306 305 303 300 298 296 295 295 295 295 295 295 295 295 295 295 295 295 296 296 296 296 297 297 297 297 297 298 298 298 297 297 297 298 298 298 298 298 298 298 298 298 299 298 298 299 299 299 299 299 299 299 299 299 298 298 297 296 295 294 293 292 291 290 289 287 286 285 283 282 280 279 278 276 275
300 301 301 302 303 304 304 305 306 306 306 306 305 303 301 298 296 295 294 294 294 294 295 295 295 295 295 295 295 296 296 296 296 296 297 297 297 297 297 297 297 297 297 297 297 297 297 298 298 298 298 298 298 298 298 298 298 298 299 299 299 299 299 299 298 298 298 297 297 296 295 294 293 292 291 290 289 287 286 285 284 282 281 280 278 277
299 300 301 302 303 303 304 305 305 306 306 305 305 303 301 299 296 295 294 294 294 294 294 295 295 295 295 295 295 296 296 296 296 296 296 296 296 296 297 297 297 297 297 297 297 297 297 297 298 298 298 298 298 298 298 298 298 298 298 298 298 298 298 298 298 298 298 297 297 296 295 295 294 293 292 291 290 289 288 286 285 284 283 281 280 278
299 300 301 302 302 303 304 304 305 305 306 305 304 303 301 299 296 294 293 293 293 294 294 294 295 295 295 295 295 296 296 296 296 296 296 296 296 296 296 296 296 296 296 296 297 297 297 297 298 298 298 298 298 298 298 298 298 298 298 298 298 298 298 298 298 298 298 298 297 296 296 295 294 293 293 292 291 289 288 287 286 285 284 282 281 280
299 300 301 301 302 303 303 304 305 305 305 305 304 303 301 299 296 294 293 292 293 293 293 294 294 294 295 295 295 296 295 296 296 296 296 296 295 295 295 296 296 296 296 296 296 297 297 297 297 297 298 298 298 298 298 298 298 298 298 298 298 298 298 298 298 298 298 298 297 297 296 296 295 294 293 292 291 290 289 288 286 285 284 283 282 280
299 300 301 301 302 303 303 304 305 305 305 305 304 303 301 298 296 294 292 292 292 292 292 293 293 294 294 295 295 295 295 296 296 296 296 296 295 295 296 296 295 296 296 296 297 297 297 297 297 297 297 297 297 298 298 298 298 298 298 299 299 299 299 299 299 299 298 298 298 297 297 296 295 295 294 293 291 290 289 288 287 286 284 283 282 281
300 300 301 302 302 303 303 304 304 305 305 304 303 302 300 298 295 293 292 291 291 291 291 292 293 293 294 295 295 295 296 296 296 296 296 296 296 295 296 296 296 296 296 297 297 297 297 297 297 297 297 297 297 297 297 298 298 298 299 299 299 299 300 300 299 299 299 299 298 298 297 297 296 295 294 293 292 291 290 289 287 286 285 284 283 282
300 300 301 301 302 303 303 304 304 304 304 304 303 301 300 297 295 293 291 290 290 290 291 291 292 293 294 294 295 295 296 296 297 297 297 296 296 296 296 296 296 296 296 297 297 297 297 297 297 297 297 297 297 297 297 298 298 299 299 300 300 300 300 300 300 300 299 299 298 298 297 297 296 295 294 294 293 291 290 289 288 287 286 285 283 282
299 300 301 301 302 303 303 304 304 304 304 303 302 301 299 297 295 293 291 290 290 290 290 291 292 293 294 294 295 295 296 296 297 297 297 296 296 296 296 296 296 297 297 297 297 297 297 297 297 297 297 297 297 297 298 298 298 299 299 300 300 300 300 300 300 300 299 299 299 298 298 297 296 295 294 294 293 291 290 289 288 287 286 285 284 283
299 300 300 301 302 303 303 304 304 304 304 303 302 300 299 296 294 293 291 290 290 290 290 291 292 293 294 295 295 296 296 297 297 297 297 296 296 296 296 297 297 297 297 297 297 297 297 297 297 298 298 298 298 298 298 299 299 300 300 300 300 300 300 300 300 300 300 299 299 298 298 297 296 295 294 293 292 291 290 289 288 287 286 285 284 283
298 299 300 301 302 302 303 304 304 304 303 302 301 300 298 296 294 293 291 290 290 290 290 291 292 293 294 295 295 296 296 296 297 297 297 296 296 296 297 297 297 298 298 298 298 298 298 298 298 298 298 298 298 299 299 299 300 300 300 300 300 300 300 300 300 300 300 299 299 298 298 297 296 295 294 293 292 291 290 289 288 287 286 285 284 283
298 299 300 301 302 302 303 303 304 303 303 302 301 299 298 296 294 293 292 291 291 291 291 292 293 293 294 295 296 296 296 296 297 297 296 296 297 297 297 297 297 298 298 298 298 298 298 298 298 298 298 299 299 299 300 300 300 300 300 300 300 300 300 300 300 300 300 300 299 299 298 297 296 295 294 293 292 291 290 288 288 287 286 285 284 283
298 299 300 301 302 302 303 303 303 303 302 301 300 299 297 296 295 294 293 292 292 292 292 293 294 294 295 295 296 296 296 296 296 296 296 296 297 297 297 297 298 298 298 298 298 298 298 298 298 298 299 299 299 299 300 300 300 300 300 300 300 300 300 300 300 300 300 300 299 299 298 297 296 295 294 293 292 290 289 288 287 287 286 285 284 284
298 299 300 301 302 302 303 303 303 302 301 301 299 298 297 296 295 294 294 293 293 293 294 294 295 295 295 296 296 296 296 296 296 296 296 297 297 297 297 298 298 298 298 298 298 298 298 298 298 299 299 299 299 299 300 300 300 300 300 300 300 300 300 300 300 300 300 299 299 298 298 297 296 295 294 293 292 290 289 288 287 286 286 285 285 284
298 299 300 301 302 302 303 302 302 301 301 300 299 298 297 296 296 295 295 294 294 295 295 295 296 296 296 296 296 296 296 296 296 296 297 297 297 297 298 298 298 298 298 298 298 298 298 298 298 299 299 299 299 300 300 300 300 301 301 301 301 301 301 301 301 300 300 299 299 298 297 297 296 295 294 293 291 290 289 288 288 287 286 286 285 284
298 299 300 301 302 302 302 302 301 300 300 299 298 297 297 296 296 296 296 295 295 296 296 296 296 296 296 296 296 296 296 296 297 297 297 297 298 298 298 298 298 298 298 298 298 298 298 298 298 299 299 299 300 300 300 300 301 301 301 301 301 301 301 301 301 300 300 299 299 298 297 296 295 294 293 292 292 291 290 289 288 288 287 286 286 285
299 300 300 301 301 301 301 300 300 299 299 298 298 297 297 296 296 296 296 296 296 296 296 297 296 296 296 296 296 296 296 297 297 297 297 298 298 298 298 298 298 298 298 298 298 298 298 298 299 299 299 299 300 300 300 300 301 301 301 301 301 301 301 301 301 300 300 299 298 297 296 295 294 293 293 292 291 291 290 290 289 288 288 287 286 286
299 300 300 301 301 300 300 299 299 298 298 297 297 297 297 297 297 297 297 297 297 297 297 297 297 297 297 296 296 296 297 297 297 298 298 298 298 298 298 298 298 298 298 298 298 298 298 299 299 299 299 300 300 300 300 300 301 301 301 301 301 301 301 300 300 300 299 298 297 297 296 294 293 293 292 291 291 291 290 290 289 289 289 288 287 287
299 299 300 300 300 299 299 298 298 298 297 297 297 297 297 297 297 297 297 297 298 297 297 297 297 297 297 297 297 297 297 297 298 298 298 298 298 298 298 298 298 298 298 298 298 298 299 299 299 299 299 300 300 300 300 301 301 301 301 301 301 301 301 300 300 300 299 298 297 296 295 294 293 292 291 291 291 290 290 290 290 289 289 289 288 288
299 299 299 299 299 298 298 297 297 297 297 297 297 297 297 297 298 298 298 298 298 297 297 297 297 297 297 297 297 297 298 298 298 298 298 298 298 298 298 298 298 298 298 298 298 299 299 299 299 299 300 300 300 300 300 301 301 301 301 301 301 301 301 300 300 299 299 297 296 295 294 294 293 292 291 291 290 290 290 290 290 290 289 289 289 289
299 299 298 298 298 297 297 297 297 297 297 297 297 298 298 298 298 298 298 298 298 297 297 297 297 297 297 297 298 298 298 298 298 298 298 298 298 298 298 298 298 298 298 298 299 299 299 299 300 300 300 300 300 301 301 301 301 301 301 301 301 301 300 300 299 299 298 297 296 295 294 293 293 292 291 291 290 290 290 290 290 290 290 290 290 289
298 298 298 297 297 297 297 297 297 297 297 298 298 298 298 298 298 298 298 298 297 297 297 297 297 297 297 298 298 298 298 298 298 298 298 298 298 298 298 298 298 299 299 299 299 299 300 300 300 300 301 301 301 301 301 301 302 302 301 301 301 300 300 300 299 298 298 297 296 295 294 293 293 292 291 291 291 290 290 290 290 290 290 290 290 290
297 297 297 296 296 296 296 297 297 297 297 298 298 298 298 298 298 298 298 297 297 297 297 297 297 298 298 298 298 298 299 298 298 299 299 299 299 299 299 299 299 299 299 300 300 300 300 300 300 301 301 301 302 302 302 302 302 301 301 301 301 300 300 299 299 298 297 296 295 295 294 294 293 292 292 291 291 291 291 291 291 291 291 291 291 291
297 296 296 296 296 296 296 296 297 297 297 298 298 298 298 298 298 298 297 297 297 297 297 298 298 298 298 298 298 298 299 299 299 299 299 299 299 299 300 300 300 300 300 300 300 300 301 301 301 301 302 302 302 302 302 302 302 301 301 301 300 300 299 299 298 298 297 296 295 295 294 294 293 293 292 292 292 292 291 291 291 291 291 291 291 291
295 295 295 295 295 296 296 296 297 297 297 298 298 298 298 298 297 297 297 297 298 298 298 298 298 298 298 298 299 299 299 299 299 299 299 299 300 300 300 300 301 301 301 301 301 301 301 301 301 302 302 302 302 302 302 302 301 301 300 300 300 299 299 299 298 297 297 296 295 294 294 294 294 293 293 293 293 293 292 292 292 292 292 292 292 292
295 294 295 295 295 296 296 296 297 297 297 298 298 297 297 297 297 297 297 298 298 298 298 298 298 299 299 299 299 299 299 299 299 299 300 300 300 300 301 301 301 301 301 302 301 302 302 302 302 302 302 302 302 302 302 301 301 300 300 300 299 299 299 298 298 297 296 296 295 295 294 294 294 294 294 294 294 293 293 293 293 292 292 292 292 291
294 294 295 295 296 296 296 297 297 297 297 297 297 297 297 297 298 298 298 298 298 298 298 298 299 299 299 299 299 299 299 300 300 300 300 300 300 301 301 301 301 302 302 302 302 302 302 303 303 302 302 302 302 301 301 300 300 300 299 299 299 299 299 298 298 297 297 296 295 295 295 295 295 295 295 295 294 294 294 294 293 293 293 293 292 291
Height
10542 10539 10537 10535 10533 10531 10528 10526 10525 10522 10519 10516 10515 10512 10510 10507 10505 10502 10500 10498 10495 10493 10490 10488 10486 10484 10482 10480 10478 10477 10475 10474 10472 10471 10470 10468 10467 10466 10464 10463 10461 10460 10459 10458 10456 10455 10454 10453 10451 10450 10449 10448 10446 10446 10445 10444 10443 10442 10441 10440 10439 10438 10438 10437 10437 10436 10436 10436 10436 10436 10436 10436 10436 10436 10437 10438 10439 10440 10440 10440 10441 10441 10442 10443 10445 10445
10537 10535 10532 10531 10529 10526 10523 10521 10520 10518 10515 10512 10510 10508 10505 10503 10500 10498 10496 10493 10491 10489 10487 10485 10483 10481 10478 10477 10475 10473 10471 10470 10469 10467 10466 10465 10463 10462 10461 10460 10458 10457 10456 10455 10454 10453 10451 10450 10449 10448 10446 10445 10443 10443 10442 10441 10441 10440 10439 10438 10437 10436 10436 10436 10435 10435 10435 10435 10435 10435 10435 10435 10435 10435 10435 10436 10436 10437 10438 10438 10439 10440 10440 10441 10441 10443
10532 10530 10527 10526 10524 10522 10519 10516 10514 10512 10510 10508 10505 10503 10501 10498 10496 10494 10492 10490 10488 10486 10483 10481 10480 10477 10475 10474 10472 10470 10468 10467 10465 10464 10463 10461 10460 10458 10457 10456 10455 10454 10453 10452 10451 10450 10448 10448 10446 10445 10443 10442 10441 10440 10439 10439 10438 10438 10437 10436 10435 10435 10434 10434 10433 10433 10433 10433 10433 10433 10433 10434 10434 10434 10434 10434 10435 10435 10435 10436 10436 10437 10438 10438 10439 10440
10528 10525 10523 10521 10519 10516 10515 10512 10510 10507 10505 10503 10501 10498 10496 10495 10492 10490 10488 10486 10485 10482 10480 10478 10476 10475 10473 10471 10469 10468 10466 10464 10463 10461 10460 10458 10456 10455 10454 10453 10452 10451 10450 10449 10448 10447 10446 10445 10444 10442 10441 10440 10438 10437 10436 10436 10435 10435 10435 10434 10433 10433 10432 10432 10431 10431 10431 10431 10431 10431 10431 10432 10432 10432 10432 10433 10433 10433 10433 10433 10434 10435 10435 10436 10436 10437
10523 10521 10518 10516 10514 10511 10509 10507 10505 10503 10500 10498 10496 10494 10492 10490 10488 10486 10485 10483 10481 10479 10477 10475 10473 10471 10470 10468 10466 10465 10463 10461 10460 10458 10456 10455 10454 10453 10451 10450 10449 10448 10447 10446 10445 10445 10443 10442 10441 10440 10439 10438 10436 10435 10434 10433 10433 10433 10432 10432 10431 10431 10430 10430 10430 10430 10429 10429 10429 10429 10429 10430 10430 10430 10430 10431 10431 10431 10431 10431 10431 10432 10433 10433 10433 10435
10518 10516 10515 10512 10510 10507 10505 10502 10500 10498 10496 10493 10491 10490 10488 10486 10484 10482 10481 10479 10477 10475 10473 10471 10470 10468 10466 10465 10463 10461 10460 10458 10457 10455 10454 10452 10451 10450 10448 10447 10446 10445 10445 10444 10443 10442 10441 10440 10439 10438 10436 10435 10434 10433 10432 10431 10430 10430 10430 10430 10430 10429 10428 10428 10428 10427 10427 10426 10426 10426 10426 10427 10427 10427 10428 10428 10428 10428 10429 10429 10430 10430 10430 10430 10431 10431
10513 10511 10510 10508 10505 10502 10500 10498 10496 10493 10491 10489 10486 10485 10483 10481 10480 10478 10477 10475 10474 10472 10470 10468 10466 10465 10463 10461 10460 10458 10457 10455 10454 10452 10451 10450 10448 10447 10446 10445 10443 10443 10442 10441 10440 10440 10438 10438 10436 10436 10435 10433 10432 10431 10430 10429 10428 10428 10427 10427 10427 10426 10426 10426 10425 10425 10425 10425 10424 10424 10424 10424 10424 10425 10425 10425 10425 10426 10426 10426 10426 10427 10428 10428 10428 10429
10508 10506 10505 10503 10500 10497 10495 10493 10491 10490 10487 10485 10483 10481 10479 10477 10476 10475 10473 10471 10470 10468 10467 10465 10463 10462 10460 10458 10457 10455 10454 10452 10451 10450 10448 10447 10445 10444 10443 10442 10441 10440 10439 10438 10438 10436 10436 10435 10434 10433 10432 10431 10430 10429 10428 10427 10426 10426 10425 10425 10424 10424 10424 10423 10423 10423 10422 10422 10421 10421 10421 10421 10421 10421 10421 10421 10422 10422 10423 10423 10423 10424 10424 10425 10425 10425
10505 10502 10500 10498 10496 10493 10490 10488 10486 10485 10483 10481 10479 10477 10475 10473 10471 10470 10469 10468 10466 10465 10463 10461 10460 10458 10457 10456 10454 10452 10451 10450 10448 10446 10445 10444 10443 10441 10440 10439 10438 10437 10436 10435 10435 10434 10433 10432 10431 10431 10430 10429 10428 10427 10426 10425 10424 10423 10423 10422 10421 10421 10421 10421 10421 10420 10420 10420 10420 10419 10419 10419 10418 10418 10418 10418 10418 10419 10419 10419 10420 10420 10420 10421 10421 10421
10501 10499 10496 10493 10491 10490 10488 10485 10482 10481 10480 10477 10475 10473 10472 10470 10468 10466 10465 10463 10463 10461 10460 10458 10456 10455 10453 10452 10451 10450 10448 10446 10445 10444 10443 10441 10440 10438 10437 10436 10435 10434 10433 10432 10431 10431 10430 10429 10428 10428 10427 10426 10425 10424 10423 10423 10421 10421 10420 10420 10419 10418 10418 10418 10418 10418 10417 10417 10417 10416 10416 10416 10416 10416 10415 10415 10415 10415 10415 10415 10416 10416 10416 10416 10417 10417
10496 10494 10492 10490 10487 10485 10483 10481 10479 10477 10475 10473 10471 10470 10468 10466 10465 10463 10461 10460 10458 10458 10456 10455 10454 10452 10450 10449 10448 10446 10445 10443 10442 10441 10440 10438 10437 10435 10434 10433 10432 10431 10430 10429 10428 10427 10426 10426 10425 10425 10424 10423 10422 10421 10420 10420 10419 10418 10418 10417 10416 10416 10415 10415 10415 10414 10414 10414 10414 10414 10413 10413 10413 10413 10413 10412 10412 10412 10412 10412 10412 10412 10412 10412 10412 10413
10492 10490 10488 10486 10483 10481 10479 10477 10475 10473 10471 10470 10468 10465 10464 10463 10461 10460 10458 10456 10455 10453 10453 10451 10450 10449 10448 10446 10445 10443 10442 10440 10439 10438 10436 10435 10434 10433 10431 10430 10429 10428 10426 10426 10425 10424 10423 10423 10422 10421 10421 10420 10420 10418 10418 10416 10416 10415 10415 10414 10413 10413 10413 10412 10411 10411 10411 10410 10410 10410 10410 10410 10410 10410 10410 10409 10409 10409 10408 10408 10408 10408 10408 10408 10408 10408
10488 10486 10484 10481 10480 10478 10476 10473 10471 10469 10468 10466 10464 10462 10460 10459 10458 10456 10455 10453 10451 10450 10449 10448 10446 10445 10445 10443 10441 10440 10438 10437 10436 10435 10433 10432 10431 10430 10428 10426 10426 10425 10423 10423 10422 10421 10420 10420 10419 10418 10418 10417 10416 10415 10415 10413 10413 10412 10411 10411 10410 10410 10410 10409 10409 10408 10408 10407 10406 10406 10406 10406 10406 10406 10406 10406 10405 10405 10405 10405 10405 10404 10404 10404 10404 10404
10483 10481 10480 10478 10476 10474 10472 10470 10468 10466 10464 10462 10460 10459 10457 10455 10454 10453 10451 10450 10448 10447 10446 10444 10443 10441 10441 10440 10438 10437 10435 10433 10432 10431 10430 10429 10428 10426 10425 10424 10423 10421 10421 10420 10419 10418 10417 10416 10416 10415 10415 10414 10413 10412 10411 10411 10410 10409 10408 10408 10407 10406 10406 10406 10406 10405 10405 10404 10403 10403 10402 10402 10401 10401 10401 10401 10401 10401 10401 10401 10400 10400 10400 10400 10400 10400
10479 10478 10475 10473 10471 10470 10468 10466 10464 10462 10460 10459 10457 10455 10453 10452 10450 10449 10448 10446 10445 10443 10442 10441 10439 10438 10437 10436 10435 10433 10432 10430 10429 10428 10426 10426 10425 10423 10422 10421 10420 10418 10418 10416 10416 10415 10414 10413 10413 10412 10411 10411 10410 10409 10408 10407 10406 10406 10405 10404 10403 10403 10403 10402 10401 10401 10401 10400 10400 10400 10399 10398 10398 10397 10396 10396 10396 10396 10396 10396 10396 10395 10395 10395 10395 10395
10475 10473 10471 10470 10468 10466 10465 10463 10461 10458 10456 10455 10453 10452 10450 10448 10446 10445 10444 10442 10441 10440 10438 10437 10435 10433 10433 10432 10431 10430 10428 10426 10425 10424 10423 10422 10421 10420 10419 10418 10416 10415 10415 10413 10413 10411 10411 10410 10409 10408 10408 10407 10406 10406 10405 10404 10403 10402 10401 10401 10400 10399 10399 10398 10398 10397 10397 10396 10396 10395 10395 10395 10394 10393 10393 10392 10391 10391 10391 10391 10390 10390 10390 10390 10390 10390
10471 10470 10468 10466 10463 10462 10460 10459 10457 10455 10453 10451 10450 10448 10446 10445 10443 10441 10440 10438 10437 10436 10435 10433 10431 10430 10428 10427 10427 10426 10425 10423 10421 10420 10420 10418 10418 10417 10416 10414 10413 10411 10411 10410 10409 10408 10407 10406 10406 10405 10404 10403 10403 10402 10401 10400 10399 10398 10398 10397 10396 10395 10395 10394 10393 10393 10393 10392 10391 10391 10390 10390 10389 10389 10388 10388 10387 10386 10386 10386 10385 10385 10385 10384 10384 10384
10467 10465 10463 10461 10460 10458 10456 10455 10453 10451 10449 10447 10446 10444 10443 10441 10440 10438 10436 10435 10433 10432 10430 10430 10428 10426 10425 10423 10422 10422 10421 10420 10418 10416 10416 10415 10414 10413 10412 10411 10409 10408 10406 10406 10405 10404 10403 10402 10401 10401 10400 10400 10399 10398 10397 10396 10395 10395 10393 10393 10392 10391 10391 10390 10389 10388 10388 10387 10386 10386 10385 10385 10385 10384 10383 10383 10382 10381 10381 10381 10380 10380 10379 10378 10378 10378
10463 10461 10460 10457 10455 10453 10451 10450 10448 10447 10445 10443 10441 10440 10438 10436 10435 10434 10432 10431 10430 10428 10427 10425 10424 10423 10421 10420 10418 10418 10417 10416 10414 10412 10411 10410 10410 10409 10408 10407 10405 10403 10403 10401 10401 10400 10399 10398 10397 10396 10396 10395 10395 10393 10393 10391 10391 10390 10389 10388 10388 10387 10386 10385 10385 10384 10383 10382 10381 10381 10380 10380 10379 10378 10378 10377 10376 10376 10375 10375 10375 10374 10373 10373 10373 10372
10458 10457 10455 10453 10451 10449 10447 10446 10445 10443 10441 10439 10438 10436 10434 10433 10431 10430 10428 10427 10425 10424 10423 10421 10420 10419 10418 10416 10415 10413 10413 10411 10410 10408 10407 10406 10405 10405 10404 10403 10401 10399 10398 10397 10396 10395 10395 10393 10393 10392 10391 10391 10390 10389 10388 10387 10386 10385 10384 10383 10383 10382 10381 10380 10380 10379 10378 10377 10376 10376 10375 10374 10373 10373 10372 10371 10371 10370 10370 10369 10368 10368 10367 10367 10366 10366
10454 10452 10451 10450 10447 10445 10443 10441 10440 10438 10437 10435 10433 10431 10430 10428 10427 10425 10424 10423 10421 10420 10419 10418 10416 10415 10413 10412 10411 10410 10409 10408 10405 10403 10402 10401 10401 10400 10400 10398 10396 10395 10393 10393 10392 10391 10390 10388 10388 10387 10386 10386 10385 10384 10383 10382 10381 10380 10379 10378 10377 10376 10376 10375 10374 10373 10373 10371 10371 10370 10369 10368 10368 10366 10366 10365 10365 10364 10363 10363 10362 10361 10361 10360 10360 10359
10450 10448 10446 10445 10443 10441 10439 10437 10435 10434 10433 10431 10430 10428 10426 10425 10423 10421 10420 10418 10417 10415 10415 10413 10412 10411 10410 10408 10406 10406 10405 10403 10401 10400 10398 10396 10396 10395 10396 10395 10393 10391 10390 10388 10387 10386 10385 10384 10383 10382 10381 10381 10380 10379 10378 10377 10376 10375 10373 10373 10371 10371 10370 10369 10368 10367 10366 10366 10365 10364 10363 10362 10361 10360 10360 10359 10358 10358 10356 10356 10355 10355 10354 10353 10353 10352
10446 10444 10443 10441 10440 10438 10435 10433 10431 10430 10428 10427 10425 10424 10422 10421 10419 10417 10415 10414 10413 10411 10410 10409 10408 10406 10406 10404 10403 10401 10400 10399 10398 10396 10394 10392 10391 10390 10391 10390 10388 10386 10385 10384 10383 10381 10380 10380 10378 10378 10377 10376 10375 10374 10373 10371 10370 10370 10368 10367 10366 10365 10364 10363 10362 10361 10360 10360 10358 10357 10356 10355 10355 10354 10353 10352 10351 10351 10350 10349 10348 10348 10346 10346 10345 10345
10441 10440 10438 10437 10435 10433 10431 10430 10428 10426 10425 10423 10421 10420 10418 10416 10415 10413 10411 10410 10408 10407 10406 10405 10403 10402 10401 10400 10398 10397 10396 10395 10393 10391 10390 10388 10386 10385 10385 10385 10383 10381 10380 10380 10378 10377 10376 10375 10373 10373 10372 10371 10370 10369 10368 10366 10365 10364 10363 10361 10360 10359 10358 10356 10356 10355 10353 10353 10351 10351 10350 10348 10348 10346 10346 10345 10344 10343 10343 10341 10341 10340 10339 10338 10338 10336
10438 10436 10435 10433 10431 10430 10428 10426 10424 10422 10420 10418 10417 10415 10414 10412 10411 10409 10408 10406 10405 10403 10401 10400 10399 10397 10396 10395 10394 10393 10391 10391 10390 10387 10385 10383 10381 10380 10380 10380 10378 10376 10375 10374 10373 10373 10371 10369 10368 10368 10366 10365 10365 10363 10362 10361 10360 10358 10357 10356 10355 10353 10351 10350 10349 10348 10347 10346 10345 10343 10343 10341 10340 10340 10338 10337 10336 10336 10335 10334 10333 10332 10331 10330 10330 10328
10434 10432 10430 10428 10427 10425 10423 10421 10420 10418 10416 10415 10413 10411 10409 10408 10406 10404 10403 10401 10400 10398 10396 10395 10394 10393 10391 10391 10389 10388 10386 10386 10385 10383 10381 10379 10376 10375 10375 10375 10373 10371 10370 10368 10368 10367 10365 10364 10363 10362 10361 10360 10358 10358 10356 10355 10354 10353 10351 10350 10348 10347 10346 10344 10343 10341 10340 10339 10338 10336 10335 10334 10333 10332 10331 10330 10328 10328 10326 10326 10325 10324 10323 10321 10321 10320
10430 10428 10426 10425 10423 10421 10419 10417 10415 10413 10411 10410 10408 10406 10405 10403 10401 10399 10398 10396 10395 10394 10392 10390 10389 10388 10386 10386 10385 10383 10382 10381 10380 10379 10377 10375 10372 10370 10370 10369 10368 10366 10365 10363 10363 10362 10360 10359 10357 10356 10355 10354 10353 10351 10350 10349 10348 10346 10345 10344 10343 10341 10340 10338 10336 10335 10333 10331 10330 10329 10328 10326 10325 10324 10323 10322 10321 10320 10318 10317 10316 10315 10314 10313 10311 10310
10425 10423 10422 10420 10418 10416 10415 10413 10411 10409 10407 10405 10403 10401 10400 10398 10396 10394 10392 10391 10390 10389 10387 10386 10385 10383 10381 10380 10379 10378 10377 10376 10375 10374 10373 10371 10368 10366 10365 10364 10363 10361 10360 10358 10357 10356 10356 10354 10353 10351 10350 10348 10346 10345 10344 10343 10341 10340 10339 10338 10336 10335 10333 10331 10330 10328 10326 10325 10323 10322 10320 10319 10318 10316 10315 10314 10313 10311 10310 10309 10308 10306 10305 10303 10302 10301
10420 10418 10417 10415 10414 10412 10410 10408 10406 10405 10403 10401 10398 10396 10395 10393 10391 10389 10387 10386 10386 10384 10382 10381 10380 10379 10377 10376 10375 10373 10372 10371 10371 10370 10368 10366 10363 10361 10361 10360 10358 10356 10355 10353 10351 10350 10350 10349 10348 10346 10345 10343 10341 10340 10338 10336 10335 10333 10332 10331 10330 10328 10326 10325 10323 10321 10320 10318 10316 10315 10313 10311 10310 10309 10308 10306 10305 10303 10302 10301 10299 10298 10296 10295 10293 10291
10415 10413 10411 10410 10408 10407 10405 10403 10401 10400 10398 10396 10394 10392 10390 10388 10386 10385 10383 10381 10381 10379 10378 10376 10375 10374 10373 10371 10370 10368 10367 10366 10366 10365 10364 10361 10358 10356 10356 10354 10353 10351 10350 10348 10346 10344 10343 10343 10343 10341 10340 10338 10336 10334 10332 10330 10328 10326 10325 10323 10322 10321 10320 10318 10316 10314 10312 10311 10309 10307 10306 10304 10303 10301 10300 10298 10296 10295 10293 10292 10290 10289 10287 10285 10284 10282
10409 10407 10406 10404 10403 10401 10400 10398 10396 10395 10393 10391 10389 10387 10385 10383 10381 10380 10378 10377 10376 10374 10373 10371 10370 10369 10368 10366 10365 10363 10361 10360 10360 10360 10359 10356 10353 10351 10350 10348 10346 10346 10345 10343 10341 10338 10336 10335 10336 10335 10334 10332 10330 10329 10327 10325 10322 10320 10318 10316 10315 10313 10311 10310 10308 10306 10305 10303 10301 10300 10298 10296 10295 10293 10291 10290 10288 10286 10285 10283 10281 10280 10278 10276 10275 10273
10403 10402 10400 10398 10397 10395 10394 10392 10391 10389 10387 10386 10384 10382 10380 10378 10376 10375 10373 10372 10371 10369 10368 10366 10365 10364 10363 10362 10360 10358 10356 10355 10355 10354 10353 10351 10348 10346 10345 10343 10341 10340 10340 10338 10336 10334 10331 10328 10328 10328 10327 10326 10324 10323 10321 10320 10317 10315 10312 10310 10308 10305 10304 10302 10300 10298 10297 10296 10294 10292 10291 10289 10287 10285 10283 10281 10279 10277 10275 10273 10272 10270 10269 10267 10265 10264
10399 10397 10395 10393 10391 10390 10388 10386 10385 10383 10381 10380 10378 10376 10375 10373 10371 10370 10368 10367 10366 10365 10363 10361 10360 10359 10358 10356 10355 10354 10352 10350 10349 10348 10347 10345 10342 10340 10339 10338 10336 10335 10333 10332 10331 10329 10326 10323 10321 10320 10319 10318 10317 10315 10314 10313 10311 10309 10306 10304 10301 10299 10296 10295 10293 10291 10289 10288 10286 10285 10283 10281 10279 10277 10275 10273 10271 10268 10266 10265 10263 10261 10260 10258 10257 10255
10394 10392 10390 10388 10386 10385 10383 10381 10379 10377 10376 10374 10372 10371 10369 10368 10366 10365 10363 10362 10361 10360 10358 10357 10355 10354 10352 10351 10350 10348 10347 10345 10344 10343 10341 10339 10336 10335 10333 10332 10330 10329 10327 10325 10324 10322 10320 10318 10316 10314 10311 10310 10309 10308 10306 10305 10303 10302 10300 10298 10296 10293 10290 10288 10285 10283 10281 10280 10278 10276 10275 10273 10271 10269 10266 10265 10262 10260 10258 10256 10255 10253 10251 10250 10249 10247
10390 10387 10385 10383 10381 10379 10377 10375 10373 10371 10370 10368 10366 10365 10363 10362 10360 10359 10358 10356 10356 10355 10353 10352 10351 10350 10348 10346 10345 10343 10341 10340 10338 10337 10335 10333 10331 10329 10327 10326 10325 10323 10321 10319 10318 10316 10313 10311 10310 10308 10305 10303 10301 10300 10300 10298 10296 10294 10293 10291 10289 10286 10284 10282 10279 10276 10274 10271 10270 10268 10266 10265 10263 10260 10258 10256 10254 10252 10250 10248 10246 10245 10244 10243 10241 10240
10385 10383 10380 10378 10376 10374 10371 10370 10368 10366 10363 10362 10360 10359 10358 10356 10355 10353 10353 10351 10350 10349 10348 10347 10346 10345 10343 10342 10340 10338 10336 10334 10333 10331 10330 10328 10326 10323 10321 10320 10319 10318 10315 10313 10311 10310 10307 10305 10303 10301 10299 10296 10294 10292 10291 10290 10289 10287 10285 10283 10282 10280 10278 10276 10273 10270 10268 10265 10262 10260 10257 10255 10253 10251 10250 10248 10246 10244 10242 10240 10239 10238 10236 10235 10234 10233
10380 10378 10376 10373 10371 10369 10366 10364 10362 10360 10358 10356 10355 10353 10351 10350 10349 10348 10347 10346 10345 10344 10343 10341 10341 10340 10338 10337 10335 10333 10331 10329 10327 10325 10323 10321 10320 10318 10316 10313 10312 10311 10310 10307 10305 10303 10301 10298 10296 10293 10292 10290 10288 10285 10283 10282 10281 10280 10277 10276 10274 10273 10270 10269 10267 10265 10261 10258 10255 10252 10250 10247 10245 10243 10241 10239 10238 10236 10235 10233 10231 10230 10229 10228 10227 10226
10375 10373 10371 10368 10366 10364 10361 10359 10356 10355 10353 10351 10349 10347 10346 10345 10343 10342 10341 10340 10340 10338 10337 10336 10335 10334 10333 10331 10330 10328 10326 10323 10321 10320 10318 10316 10315 10313 10310 10308 10306 10305 10303 10301 10298 10296 10294 10291 10289 10286 10285 10283 10281 10279 10277 10275 10273 10271 10269 10268 10266 10265 10263 10261 10260 10258 10255 10252 10248 10245 10242 10240 10236 10234 10232 10231 10230 10228 10226 10225 10225 10223 10223 10221 10220 10219
10370 10368 10366 10363 10361 10359 10356 10354 10351 10350 10348 10346 10344 10342 10341 10340 10338 10337 10336 10335 10334 10333 10332 10331 10330 10328 10326 10325 10323 10321 10320 10318 10316 10314 10312 10310 10308 10306 10305 10302 10300 10298 10296 10295 10293 10290 10288 10285 10283 10281 10278 10276 10273 10271 10270 10268 10266 10264 10261 10260 10258 10256 10255 10254 10252 10250 10248 10245 10242 10239 10236 10233 10230 10227 10225 10223 10221 10220 10219 10218 10218 10216 10216 10215 10213 10213
10365 10363 10361 10358 10356 10354 10351 10349 10346 10345 10343 10341 10339 10337 10336 10335 10333 10332 10331 10330 10329 10328 10326 10325 10324 10323 10321 10319 10318 10316 10314 10312 10310 10308 10306 10305 10303 10301 10299 10296 10294 10291 10290 10288 10286 10284 10281 10279 10276 10275 10272 10270 10267 10265 10263 10261 10260 10258 10255 10252 10250 10248 10247 10246 10245 10242 10240 10238 10235 10232 10229 10226 10223 10221 10218 10216 10214 10213 10212 10211 10210 10210 10209 10208 10207 10206
10360 10358 10355 10353 10351 10349 10346 10345 10342 10340 10338 10336 10334 10333 10331 10330 10328 10327 10326 10325 10323 10323 10321 10320 10318 10316 10315 10313 10311 10310 10308 10306 10304 10303 10301 10298 10296 10295 10293 10290 10288 10286 10283 10281 10279 10277 10275 10273 10270 10268 10266 10263 10261 10258 10256 10255 10253 10251 10249 10246 10243 10240 10239 10238 10237 10235 10233 10230 10228 10226 10223 10220 10217 10215 10212 10210 10208 10206 10205 10204 10203 10203 10202 10201 10201 10200
10355 10352 10350 10348 10346 10344 10341 10340 10338 10335 10333 10331 10330 10328 10326 10325 10324 10322 10321 10320 10318 10316 10315 10314 10312 10310 10308 10306 10305 10304 10302 10300 10298 10296 10295 10293 10291 10288 10286 10285 10282 10280 10277 10275 10272 10270 10268 10266 10264 10261 10259 10257 10255 10252 10249 10247 10246 10245 10242 10240 10236 10234 10231 10230 10230 10228 10226 10223 10221 10220 10217 10214 10211 10209 10206 10204 10202 10200 10199 10198 10196 10196 10195 10195 10194 10193
10349 10347 10345 10343 10341 10338 10336 10335 10332 10330 10328 10327 10325 10323 10322 10321 10320 10318 10316 10314 10313 10311 10310 10308 10306 10304 10302 10300 10298 10298 10296 10295 10293 10291 10288 10286 10285 10283 10280 10278 10276 10274 10271 10268 10266 10263 10261 10260 10258 10255 10253 10251 10248 10246 10243 10241 10239 10237 10235 10233 10231 10228 10225 10222 10221 10221 10219 10217 10215 10213 10211 10208 10206 10203 10201 10199 10196 10195 10193 10191 10190 10190 10189 10188 10187 10186
10344 10342 10340 10338 10336 10333 10331 10329 10327 10325 10324 10322 10320 10318 10317 10316 10315 10313 10311 10309 10307 10305 10304 10302 10300 10298 10296 10295 10293 10291 10290 10288 10286 10285 10283 10280 10278 10276 10274 10271 10270 10267 10265 10263 10260 10257 10255 10253 10251 10249 10247 10245 10242 10239 10236 10234 10232 10230 10228 10226 10225 10222 10219 10216 10215 10213 10211 10210 10208 10206 10205 10202 10200 10198 10195 10193 10191 10190 10188 10186 10185 10183 10183 10181 10181 10180
10338 10336 10335 10332 10330 10328 10326 10324 10322 10320 10318 10317 10315 10313 10312 10311 10310 10308 10306 10304 10301 10300 10298 10296 10295 10292 10290 10288 10287 10285 10283 10281 10280 10278 10276 10274 10272 10270 10268 10266 10263 10261 10259 10256 10254 10251 10249 10246 10243 10241 10240 10238 10235 10233 10230 10228 10225 10223 10220 10219 10217 10215 10213 10211 10209 10207 10205 10203 10201 10200 10198 10196 10194 10191 10190 10188 10186 10184 10183 10181 10179 10178 10176 10176 10175 10173
10333 10331 10329 10327 10325 10323 10321 10319 10317 10315 10313 10312 10310 10309 10307 10306 10304 10302 10300 10298 10296 10294 10292 10291 10290 10287 10285 10283 10281 10280 10278 10275 10273 10271 10270 10268 10265 10263 10261 10259 10257 10255 10252 10250 10247 10245 10243 10240 10237 10235 10232 10230 10228 10225 10223 10221 10218 10215 10213 10212 10210 10208 10206 10205 10203 10201 10199 10196 10195 10193 10191 10190 10188 10186 10183 10181 10180 10178 10177 10176 10174 10173 10171 10170 10169 10168
10328 10325 10323 10321 10320 10318 10316 10314 10313 10311 10309 10307 10305 10304 10302 10300 10299 10296 10295 10293 10291 10289 10287 10285 10284 10282 10280 10278 10276 10274 10272 10270 10267 10265 10263 10261 10259 10256 10255 10252 10250 10248 10246 10243 10240 10238 10235 10233 10231 10228 10226 10223 10220 10217 10216 10214 10212 10210 10207 10205 10204 10202 10200 10198 10197 10196 10193 10191 10189 10186 10185 10183 10181 10180 10178 10176 10175 10173 10171 10170 10169 10168 10166 10165 10163 10162
10322 10320 10318 10316 10315 10313 10311 10310 10308 10306 10304 10302 10300 10298 10297 10295 10293 10291 10289 10287 10285 10283 10281 10280 10278 10276 10274 10272 10271 10269 10266 10264 10262 10260 10258 10255 10253 10250 10248 10246 10243 10241 10239 10236 10234 10231 10228 10226 10224 10221 10220 10216 10213 10210 10208 10206 10205 10203 10201 10200 10198 10196 10195 10193 10191 10190 10188 10185 10183 10181 10180 10178 10175 10173 10172 10170 10168 10167 10166 10165 10164 10163 10161 10160 10158 10157
10317 10315 10313 10311 10310 10308 10306 10305 10303 10301 10299 10297 10295 10293 10291 10290 10288 10286 10284 10282 10280 10278 10276 10275 10272 10270 10268 10266 10265 10263 10261 10259 10256 10254 10252 10250 10247 10245 10242 10240 10237 10234 10231 10229 10226 10224 10221 10218 10216 10215 10213 10211 10208 10204 10201 10199 10198 10197 10195 10194 10193 10191 10189 10187 10186 10184 10182 10180 10178 10176 10174 10172 10170 10168 10166 10165 10163 10161 10160 10159 10158 10158 10156 10155 10154 10152
10311 10310 10308 10306 10304 10302 10301 10299 10298 10296 10294 10292 10290 10288 10286 10285 10283 10281 10279 10277 10275 10273 10271 10269 10267 10265 10263 10261 10259 10257 10255 10253 10250 10248 10246 10244 10241 10239 10236 10233 10231 10228 10225 10222 10220 10217 10214 10211 10208 10206 10206 10205 10203 10199 10195 10192 10191 10190 10190 10188 10187 10186 10183 10181 10180 10178 10176 10174 10172 10170 10168 10166 10165 10163 10161 10159 10157 10155 10154 10153 10152 10152 10151 10150 10149 10146
10306 10304 10303 10301 10299 10297 10295 10294 10292 10290 10288 10286 10285 10283 10281 10279 10277 10275 10273 10271 10270 10268 10265 10263 10261 10260 10257 10255 10253 10251 10249 10247 10245 10242 10240 10238 10236 10233 10230 10228 10225 10222 10219 10215 10213 10210 10208 10204 10200 10198 10196 10196 10196 10194 10190 10186 10185 10184 10183 10183 10182 10181 10178 10176 10174 10172 10170 10168 10166 10165 10163 10161 10160 10158 10156 10154 10151 10150 10148 10147 10146 10146 10146 10145 10143 10141